Location: Lucerne Valley
(34.4439°N, 116.9669°E)
Time: 12:39:32
(UTC-07:00)

Vanguard 3 - Visible Passes

Search period start: 19 July 2018 00:00
Search period end: 29 July 2018 00:00
Orbit: 508 x 3264 km, 33.3° (Epoch: 18 July)

Date Brightness Start Highest point End Pass type
(mag) Time Alt. Az. Time Alt. Az. Time Alt. Az.
19 Jul 8.1 04:57:37 10° W 05:09:09 84° S 05:15:24 10° E visible
19 Jul 7.6 07:14:00 10° W 07:20:29 53° SW 07:20:29 53° SW visible
20 Jul 7.7 05:57:42 10° W 06:07:34 78° S 06:10:43 30° ESE visible
20 Jul 9.4 08:13:35 10° W 08:15:17 16° W 08:15:17 16° W visible
21 Jul 8.4 04:40:39 10° W 04:53:17 85° S 05:00:02 10° E visible
21 Jul 7.6 06:57:31 10° W 07:05:31 54° SSW 07:05:31 54° SSW visible
22 Jul 8.0 05:40:54 10° W 05:51:44 75° SSW 05:55:43 25° ESE visible
22 Jul 9.3 07:57:25 10° W 08:00:17 19° WSW 08:00:17 19° WSW visible
23 Jul 7.8 06:40:55 10° W 06:49:44 49° SSW 06:50:30 47° S visible
24 Jul 8.2 05:24:00 10° W 05:35:50 72° SSW 05:40:43 20° ESE visible
24 Jul 9.2 07:41:10 10° W 07:45:17 21° WSW 07:45:17 21° WSW visible
25 Jul 8.1 06:24:13 10° W 06:33:47 46° SSW 06:35:29 39° S visible
26 Jul 8.5 05:06:59 10° W 05:19:49 68° SSW 05:25:43 17° ESE visible
26 Jul 9.2 07:24:52 10° W 07:30:17 21° SW 07:30:17 21° SW visible
27 Jul 8.5 06:07:24 10° W 06:17:43 42° SW 06:20:31 31° SSE visible
28 Jul 8.8 04:49:54 10° W 05:03:42 65° SSW 05:10:45 13° SE visible
28 Jul 9.4 07:08:30 10° W 07:14:50 20° SW 07:15:20 20° SW visible
